Weather History for Branson, MO

Change the Weather History Date:

Sunday, May 26, 2013

  Actual Average (KHRO) Record (KHRO)
Temperature  
Mean Temperature 72 °F 68 °F  
Max Temperature 84 °F 79 °F 96 °F (1926)
Min Temperature 60 °F 58 °F 34 °F (1925)
Degree Days  
Heating Degree Days 0 1  
Month to date heating degree days 72  
Since 1 July heating degree days 3993  
Cooling Degree Days 7 5  
Month to date cooling degree days 78  
Year to date cooling degree days 115  
Growing Degree Days 22 (Base 50)    
Moisture  
Dew Point 61 °F    
Average Humidity 77    
Maximum Humidity 94    
Minimum Humidity 51    
Precipitation  
Precipitation 0.00 in 0.13 in 2.45 in (1939)
Month to date precipitation 3.99  
Year to date precipitation 17.30  
Snow  
Snow 0.00 in 0.00 in - ()
Month to date snowfall 0.0  
Since 1 July snowfall 11.5  
Snow Depth -    
Sea Level Pressure  
Sea Level Pressure 30.11 in    
Wind  
Wind Speed 6 mph (SSE)    
Max Wind Speed 13 mph    
Max Gust Speed 17 mph    
Visibility 10 miles    
Events      
T = Trace of Precipitation, MM = Missing Value Source: NWS Daily Summary

Daily Weather History Graph

Daily Weather History Graph

Search for Another Location

Airport:

Trip Planner

Search our weather history database for the weather conditions in past years. The results will help you decide how hot, cold, wet, or windy it might be!

Date:

Astronomy

May. 26, 2013 Rise Set
Actual Time 5:58 AM CDT 8:21 PM CDT
Civil Twilight 5:28 AM CDT 8:51 PM CDT
Nautical Twilight 4:52 AM CDT 9:27 PM CDT
Astronomical Twilight 4:12 AM CDT 10:08 PM CDT
Moon 10:10 PM CDT 7:27 AM CDT
Length of Visible Light 15h 22m
Length of Day
14h 23m
Waning Gibbous, 96% of the Moon is Illuminated
May 26
Waning Gibbous
May 31
Last Quarter
Jun 8
New
Jun 16
First Quarter
Jun 23
Full

Hourly Weather History & Observations

Time (CDT) Temp. Heat Index Dew Point Humidity Pressure Visibility Wind Dir Wind Speed Gust Speed Precip Events Conditions
12:15 AM 66.2 °F - 59.0 °F 78% 30.16 in 10.0 mi SSE 6.9 mph - N/A   Partly Cloudy
12:35 AM 66.2 °F - 59.0 °F 78% 30.16 in 10.0 mi SSE 5.8 mph - N/A   Partly Cloudy
12:55 AM 66.2 °F - 59.0 °F 78% 30.17 in 10.0 mi South 3.5 mph - N/A   Clear
1:15 AM 64.4 °F - 59.0 °F 83% 30.16 in 10.0 mi South 3.5 mph - N/A   Clear
1:35 AM 64.4 °F - 59.0 °F 83% 30.16 in 10.0 mi South 3.5 mph - N/A   Partly Cloudy
1:55 AM 64.4 °F - 59.0 °F 83% 30.16 in 10.0 mi South 3.5 mph - N/A   Partly Cloudy
2:15 AM 64.4 °F - 59.0 °F 83% 30.15 in 10.0 mi SSE 3.5 mph - N/A   Partly Cloudy
2:35 AM 62.6 °F - 59.0 °F 88% 30.15 in 10.0 mi ESE 3.5 mph - N/A   Partly Cloudy
2:55 AM 62.6 °F - 59.0 °F 88% 30.14 in 10.0 mi East 3.5 mph - N/A   Partly Cloudy
3:15 AM 60.8 °F - 59.0 °F 94% 30.14 in 10.0 mi SE 4.6 mph - N/A   Clear
3:35 AM 62.6 °F - 59.0 °F 88% 30.13 in 10.0 mi SE 5.8 mph - N/A   Clear
3:55 AM 62.6 °F - 59.0 °F 88% 30.13 in 10.0 mi SE 4.6 mph - N/A   Clear
4:15 AM 60.8 °F - 59.0 °F 94% 30.13 in 10.0 mi SE 3.5 mph - N/A   Clear
4:35 AM 60.8 °F - 59.0 °F 94% 30.13 in 10.0 mi Calm Calm - N/A   Clear
4:55 AM 60.8 °F - 57.2 °F 88% 30.12 in 10.0 mi SE 4.6 mph - N/A   Clear
5:15 AM 60.8 °F - 57.2 °F 88% 30.13 in 10.0 mi SE 5.8 mph - N/A   Clear
5:35 AM 60.8 °F - 57.2 °F 88% 30.13 in 10.0 mi SE 5.8 mph - N/A   Clear
5:55 AM 60.8 °F - 57.2 °F 88% 30.14 in 10.0 mi ESE 6.9 mph - N/A   Clear
6:15 AM 60.8 °F - 57.2 °F 88% 30.14 in 10.0 mi SE 6.9 mph - N/A   Clear
6:35 AM 60.8 °F - 57.2 °F 88% 30.14 in 10.0 mi SE 5.8 mph - N/A   Clear
6:45 AM 62.6 °F - 57.2 °F 82% 30.14 in 10.0 mi SE 6.9 mph - N/A   Mostly Cloudy
7:45 AM 64.4 °F - 59.0 °F 83% 30.14 in 10.0 mi SE 6.9 mph - N/A   Overcast
8:55 AM 69.8 °F - 62.6 °F 78% 30.15 in 10.0 mi SE 9.2 mph - N/A   Overcast
9:45 AM 71.6 °F - 62.6 °F 73% 30.16 in 10.0 mi SSE 8.1 mph - N/A   Mostly Cloudy
10:45 AM 77.0 °F - 64.4 °F 65% 30.16 in 10.0 mi SSE 12.7 mph 16.1 mph N/A   Mostly Cloudy
11:46 AM 78.8 °F - 64.4 °F 61% 30.15 in 10.0 mi South 9.2 mph 17.3 mph N/A   Mostly Cloudy
12:45 PM 80.6 °F 82.3 °F 64.4 °F 58% 30.14 in 10.0 mi South 11.5 mph 16.1 mph N/A   Mostly Cloudy
1:45 PM 80.6 °F 82.3 °F 64.4 °F 58% 30.12 in 10.0 mi SSW 9.2 mph - N/A   Mostly Cloudy
2:47 PM 84.2 °F 85.6 °F 64.4 °F 51% 30.09 in 10.0 mi SSE 9.2 mph 17.3 mph N/A   Mostly Cloudy
3:52 PM 82.4 °F 83.9 °F 64.4 °F 54% 30.07 in 10.0 mi South 11.5 mph - N/A   Mostly Cloudy
4:54 PM 80.6 °F 81.8 °F 62.6 °F 54% 30.05 in 10.0 mi South 9.2 mph - N/A   Mostly Cloudy
5:51 PM 80.6 °F 82.3 °F 64.4 °F 58% 30.05 in 10.0 mi South 12.7 mph - N/A   Partly Cloudy
6:48 PM 78.8 °F - 64.4 °F 61% 30.04 in 10.0 mi SSE 9.2 mph 17.3 mph N/A   Mostly Cloudy
7:51 PM 77.0 °F - 64.4 °F 65% 30.04 in 10.0 mi SSE 9.2 mph - N/A   Mostly Cloudy
8:47 PM 73.4 °F - 64.4 °F 73% 30.05 in 10.0 mi SSE 8.1 mph - N/A   Mostly Cloudy
9:15 PM 73.4 °F - 64.4 °F 73% 30.05 in 10.0 mi SSE 9.2 mph - N/A   Clear
9:35 PM 71.6 °F - 64.4 °F 78% 30.05 in 10.0 mi SE 9.2 mph - N/A   Clear
9:55 PM 71.6 °F - 62.6 °F 73% 30.05 in 10.0 mi SSE 9.2 mph - N/A   Clear
10:15 PM 71.6 °F - 62.6 °F 73% 30.05 in 10.0 mi SSE 8.1 mph - N/A   Clear
10:35 PM 69.8 °F - 60.8 °F 73% 30.05 in 10.0 mi SSE 9.2 mph - N/A   Clear
10:55 PM 68.0 °F - 60.8 °F 78% 30.05 in 10.0 mi SSE 8.1 mph - N/A   Clear
11:15 PM 68.0 °F - 60.8 °F 78% 30.05 in 10.0 mi South 3.5 mph - N/A   Clear
11:35 PM 68.0 °F - 60.8 °F 78% 30.05 in 10.0 mi South 3.5 mph - N/A   Clear
11:55 PM 66.2 °F - 60.8 °F 83% 30.05 in 10.0 mi South 5.8 mph - N/A   Clear